Cahokia, IL

3:27 PM CDT on August 27, 2016 (GMT -0500)
Saint Louis Downtown

Weather History for KCPS - July, 2012

Change the Weather History Date:

Friday, July 27, 2012

  Actual Average Record
Temperature  
Mean Temperature 86 °F -  
Max Temperature 99 °F 87 °F 103 °F (1952)
Min Temperature 73 °F 74 °F 53 °F (2004)
Cooling Degree Days 21    
Growing Degree Days 36 (Base 50)    
Moisture  
Dew Point 65 °F    
Average Humidity 54    
Maximum Humidity 87    
Minimum Humidity 25    
Precipitation  
Precipitation 0.00 in - - ()
Sea Level Pressure  
Sea Level Pressure 29.89 in    
Wind  
Wind Speed 6 mph (WNW)    
Max Wind Speed 21 mph    
Max Gust Speed 29 mph    
Visibility 10 miles    
Events      
Averages and records for this station are not official NWS values.
T = Trace of Precipitation, MM = Missing Value Source: NWS Daily Summary

Daily Weather History Graph

Daily Weather History Graph

Search for Another Location

Airport or City:

Trip Planner

Search our weather history database for the weather conditions in past years. The results will help you decide how hot, cold, wet, or windy it might be!

Date:

Astronomy

Jul. 27, 2012 Rise Set
Actual Time 5:58 AM CDT 8:15 PM CDT
Civil Twilight 5:28 AM CDT 8:45 PM CDT
Nautical Twilight 4:51 AM CDT 9:21 PM CDT
Astronomical Twilight 4:11 AM CDT 10:01 PM CDT
Moon 3:12 PM CDT 12:30 AM CDT
Length of Visible Light 15h 16m
Length of Day
14h 16m
Waxing Gibbous, 65% of the Moon is Illuminated
Jul 27
Waxing Gibbous
Aug 1
Full
Aug 9
Last Quarter
Aug 17
New
Aug 24
First Quarter

Hourly Weather History & Observations

Time (CDT) Temp. Heat Index Dew Point Humidity Pressure Visibility Wind Dir Wind Speed Gust Speed Precip Events Conditions
12:53 AM 77.0 °F - 71.1 °F 82% 29.86 in 10.0 mi SSW 4.6 mph - N/A   Clear
1:53 AM 75.9 °F - 71.1 °F 85% 29.87 in 10.0 mi SW 4.6 mph - N/A   Clear
2:53 AM 75.0 °F - 71.1 °F 87% 29.86 in 10.0 mi SSW 3.5 mph - N/A   Clear
3:53 AM 75.0 °F - 70.0 °F 84% 29.86 in 10.0 mi SSW 3.5 mph - N/A   Clear
4:53 AM 73.9 °F - 70.0 °F 87% 29.85 in 10.0 mi SW 3.5 mph - N/A   Clear
5:53 AM 73.9 °F - 70.0 °F 87% 29.86 in 10.0 mi SSW 3.5 mph - N/A   Clear
7:53 AM 77.0 °F - 71.1 °F 82% 29.90 in 10.0 mi Calm Calm - N/A   Clear
8:53 AM 82.9 °F 87.0 °F 70.0 °F 65% 29.90 in 10.0 mi Variable 3.5 mph - N/A   Clear
9:53 AM 88.0 °F 91.4 °F 68.0 °F 51% 29.90 in 10.0 mi West 8.1 mph - N/A   Clear
10:53 AM 91.0 °F 94.3 °F 66.9 °F 45% 29.90 in 10.0 mi Variable 3.5 mph - N/A   Clear
11:53 AM 95.0 °F 97.0 °F 64.0 °F 36% 29.90 in 10.0 mi West 8.1 mph - N/A   Clear
1:53 PM 99.0 °F 99.5 °F 61.0 °F 28% 29.87 in 10.0 mi NNW 12.7 mph 21.9 mph N/A   Clear
2:53 PM 99.0 °F 100.5 °F 63.0 °F 30% 29.86 in 10.0 mi WNW 9.2 mph 25.3 mph N/A   Clear
3:53 PM 99.0 °F 99.5 °F 61.0 °F 28% 29.86 in 10.0 mi NW 11.5 mph 23.0 mph N/A   Clear
4:53 PM 97.0 °F 95.3 °F 55.9 °F 25% 29.86 in 10.0 mi NW 19.6 mph 28.8 mph N/A   Scattered Clouds
5:53 PM 95.0 °F 93.7 °F 57.0 °F 28% 29.86 in 10.0 mi NNW 20.7 mph 26.5 mph N/A   Clear
6:53 PM 91.9 °F 90.8 °F 57.9 °F 32% 29.88 in 10.0 mi North 12.7 mph 19.6 mph N/A   Clear
7:53 PM 88.0 °F 86.9 °F 57.9 °F 36% 29.91 in 10.0 mi North 12.7 mph - N/A   Clear
8:53 PM 84.0 °F 83.5 °F 57.9 °F 41% 29.94 in 10.0 mi North 6.9 mph - N/A   Clear
9:53 PM 81.0 °F 81.6 °F 60.1 °F 49% 29.96 in 10.0 mi North 3.5 mph - N/A   Clear
10:53 PM 79.0 °F - 60.1 °F 52% 29.97 in 10.0 mi Calm Calm - N/A   Clear